CZ-4 DEB, 26209

Orbit data source: Space-Track

CZ-4 DEB, 26209 is space debris in SSO originally from a launch on Thu, 14 Oct 1999 UTC launched from the Taiyaun Space Center, China (TSC). Debris objects in space refer to the collection of defunct objects orbiting the Earth. Examples of debris include non-operational satellites, rocket bodies, and fragments generated from explosions, collisions, or faulty payload assembly.

Loading next visibility...
Identifier
26209, 1999-057CX
Orbit
SSO
Country
Flag of CNCN / PRC
Related business
Manufacturer
Unknown
Mission
Spacecraft
Bus & Motor
Unknown
Mass
Unknown
Launch date (UTC)
1999-10-14 (26 years ago)
Launch vehicle
Unknown
Launch site
Taiyaun Space Center, China (TSC)
Object type
Payload
Rocket body
Debris
Shape & HBR
Unknown shape, 0.1 m
Radar Cross Section
Small (<0.1 m²)

Expand to show TLE details & history
Last TLE update: 17 hours ago

TLE from 17 hours ago
0 CZ-4 DEB
1 26209U 99057CX  26036.95814433  .00001606  00000-0  30260-3 0  9990
2 26209  98.6316 200.3376 0028850 133.7380 349.6217 14.65791763378103
Epoch: 2026-02-05T22:59Z
TLE epoch observation values (Epoch: 2026-02-05T22:59:43.670Z)
Latitude
55.82734°
Longitude
-87.84794°
Altitude
663.796 km
Speed
7.541 km/s
True Right ascension
02h 12m 44s
True Declination
55° 39' 55"
Sunlit
Object was in daylight at epoch
Visualization orbit readout
Latitude
Unknown
Longitude
Unknown
Altitude
Unknown
Speed
Unknown
Apparent Right ascension
Unknown
Apparent Declination
Unknown
Sunlit
N/A
Visualization observer readout
Local Sidereal Time
17:45:33
Azimuth
Unknown
Elevation
Unknown
Doppler factor
Unknown
Orbital elements
Apogee altitude
691.967 km
Perigee altitude
651.29 km
Semi-major axis
7,049.765 km
Eccentricity
0.00289
Inclination
98.6316°
RAAN
200.3376°
Arg. of periapsis
133.738°
True anomaly
349.56193°
Mean anomaly
349.6217°
Eccentric anomaly
349.59184°
Mean motion
3.66675 °/min
Orbital period
98.18 mins
BSTAR
0.0003026
Loading maneuver chart data...
Computing Atmospheric mass density...
Loading historical data...
Loading historical data...
Loading historical data...
Loading historical data...
Loading historical data...
Loading historical data...
Loading historical data...

Documentation

Showing up to 5 results
|